EW2514 Weather Reports


Display with metric or nautical units.
time (UTC)temp
F
wind
direction
speed
MPH
gust
MPH
rain 1hr
in
rain 24hr
in
rain mn
in
humidity
%
barometer
mb
20260505124602 60 87 0.0 3.0 0.00 0.00 0.00 97 1005.9
20260505123028 59 66 0.0 2.0 0.00 0.00 0.00 96 1005.7
20260505121601 59 72 0.0 3.0 0.00 0.00 0.00 96 1005.6
20260505120029 59 70 0.0 2.0 0.00 0.00 0.00 96 1005.6
20260505114559 59 38 0.0 5.0 0.00 0.00 0.00 96 1005.4
20260505113037 59 47 2.0 9.0 0.00 0.00 0.00 95 1004.8
20260505111556 60 187 0.0 2.0 0.00 0.00 0.00 95 1004.4
20260505101558 60 119 1.0 2.0 0.00 0.00 0.00 95 1004.5
20260505100024 60 169 3.0 5.0 0.00 0.00 0.00 95 1004.7
20260505094601 60 166 3.0 5.0 0.00 0.00 0.00 95 1004.8
20260505093032 60 210 3.0 8.0 0.00 0.00 0.00 94 1005.6
20260505091607 60 199 2.0 7.0 0.00 0.00 0.00 94 1005.5
20260505090028 60 220 0.0 4.0 0.00 0.00 0.00 93 1005.7
20260505084558 60 227 1.0 6.0 0.00 0.00 0.00 92 1005.7
20260505083019 60 240 1.0 5.0 0.00 0.00 0.00 90 1005.2
20260505081548 61 324 0.0 2.0 0.00 0.00 0.00 88 1005.8
20260505080024 62 230 1.0 7.0 0.00 0.00 0.00 83 1005.6
20260505074541 63 255 1.0 4.0 0.00 0.00 0.00 79 1004.7
20260505073008 64 199 1.0 4.0 0.00 0.00 0.00 75 1005.0
20260505071534 65 160 1.0 8.0 0.00 0.00 0.00 73 1004.8
20260505070005 65 164 1.0 7.0 0.00 0.00 0.00 73 1004.8
20260505064533 65 125 3.0 7.0 0.00 0.00 0.00 72 1005.3
20260505063003 65 141 3.0 8.0 0.00 0.00 0.00 72 1005.6
20260505061547 66 133 4.0 10.0 0.00 0.00 0.00 70 1005.9
20260505054541 66 161 4.0 9.0 0.00 0.00 0.00 70 1005.7
20260505053057 66 154 4.0 10.0 0.00 0.00 0.00 69 1005.5
20260505051523 66 132 3.0 8.0 0.00 0.00 0.00 69 1005.9
20260505041519 67 155 1.0 8.0 0.00 0.00 0.00 67 1006.5
20260505040059 68 133 2.0 7.0 0.00 0.00 0.00 66 1006.6
20260505034533 68 159 3.0 8.0 0.00 0.00 0.00 65 1006.7
20260505033100 69 165 3.0 7.0 0.00 0.00 0.00 64 1006.8
20260505031520 69 165 4.0 7.0 0.00 0.00 0.00 62 1006.9
20260505030048 70 165 5.0 9.0 0.00 0.00 0.00 61 1006.8
20260505024518 70 152 5.0 10.0 0.00 0.00 0.00 61 1006.7
20260505023050 70 359 4.0 9.0 0.00 0.00 0.00 61 1006.3
20260505021518 71 197 5.0 9.0 0.00 0.00 0.00 60 1005.9
20260505020050 71 145 6.0 9.0 0.00 0.00 0.00 59 1005.8
20260505014518 72 180 5.0 10.0 0.00 0.00 0.00 58 1005.6
20260505013053 73 359 4.0 6.0 0.00 0.00 0.00 56 1005.4
20260505011525 73 158 4.0 9.0 0.00 0.00 0.00 55 1005.3
20260505010106 74 180 4.0 8.0 0.00 0.00 0.00 54 1004.8
20260505004531 74 359 3.0 9.0 0.00 0.00 0.00 53 1004.6
20260505003100 75 359 4.0 8.0 0.00 0.00 0.00 52 1004.5
20260505001533 76 359 3.0 10.0 0.00 0.00 0.00 50 1004.5
20260505000003 77 359 4.0 12.0 0.00 0.00 0.00 48 1004.3
20260504234535 77 359 0.0 15.0 0.00 0.00 0.00 46 1004.4
20260504233004 78 0.0 16.0 0.00 0.00 0.00 46 1004.6
20260504231533 79 359 6.0 11.0 0.00 0.00 0.00 45 1004.6
20260504230001 79 359 8.0 15.0 0.00 0.00 0.00 44 1004.7
20260504224536 79 359 9.0 18.0 0.00 0.00 0.00 44 1004.8
20260504223002 80 359 10.0 18.0 0.00 0.00 0.00 43 1004.9
20260504221533 80 359 7.0 23.0 0.00 0.00 0.00 41 1005.0
20260504220107 81 217 9.0 18.0 0.00 0.00 0.00 41 1005.0
20260504214530 80 359 7.0 26.0 0.00 0.00 0.00 42 1004.9
20260504213109 81 230 8.0 18.0 0.00 0.00 0.00 41 1005.2
20260504211536 81 177 9.0 14.0 0.00 0.00 0.00 41 1005.2
20260504210056 81 359 9.0 22.0 0.00 0.00 0.00 41 1005.5
20260504204535 81 359 8.0 24.0 0.00 0.00 0.00 40 1005.6
20260504203051 81 359 7.0 16.0 0.00 0.00 0.00 42 1005.8
20260504201519 80 359 13.0 23.0 0.00 0.00 0.00 41 1006.0
20260504200052 80 359 9.0 24.0 0.00 0.00 0.00 42 1005.9
20260504194517 80 359 5.0 22.0 0.00 0.00 0.00 44 1006.2
20260504193100 80 359 10.0 20.0 0.00 0.00 0.00 43 1006.3
20260504191515 79 359 12.0 25.0 0.00 0.00 0.00 43 1006.5
20260504190049 80 359 7.0 16.0 0.00 0.00 0.00 44 1006.5
20260504184510 79 359 6.0 22.0 0.00 0.00 0.00 45 1006.7
20260504183055 79 359 8.0 25.0 0.00 0.00 0.00 45 1006.8
20260504181516 79 359 12.0 21.0 0.00 0.00 0.00 44 1006.9
20260504180107 79 359 8.0 19.0 0.00 0.00 0.00 44 1007.0
20260504174506 78 359 10.0 26.0 0.00 0.00 0.00 44 1007.2
20260504173035 78 359 11.0 24.0 0.00 0.00 0.00 44 1007.2
20260504171507 77 359 7.0 27.0 0.00 0.00 0.00 45 1007.2